Regional Weather Roundup
Issued by NWS Kansas City/Pleasant Hill, MO

Current Version | Previous Version | Text Only | Print | Product List | Glossary On
Versions: 1 2 3 4 5 6 7 8 9 10 11 12 13 14 15 16 17 18 19 20 21 22 23 24 25 26 27 28 29 30 31 32 33 34 35 36 37 38 39 40 41 42 43 44 45 46 47 48 49 50
000
ASUS43 KEAX 200610
RWREAX

WEATHER ROUNDUP FOR EASTERN KANSAS AND NORTHWEST MISSOURI
NATIONAL WEATHER SERVICE KANSAS CITY/PLEASANT HILL MO
100 AM CDT FRI OCT 20 2017

KSZ040-057-103>105-MOZ028-029-037-043-200700-
...KANSAS CITY METROPOLITAN AREA...

CITY           SKY/WX    TMP DP  RH WIND       PRES   REMARKS
K.C. INTL      FAIR      60  52  74 S12       30.08S
6HR MIN TEMP:  56; 6HR MAX TEMP:  64;

K.C. DOWNTOWN  FAIR      60  53  77 SW7       30.08S
6HR MIN TEMP:  59; 6HR MAX TEMP:  76;

LEES SUMMIT    FAIR      61  54  77 S13       30.10R
6HR MIN TEMP:  60; 6HR MAX TEMP:  71;

OLATHE - IXD   FAIR      55  51  86 S7        30.09S
6HR MIN TEMP:  55; 6HR MAX TEMP:  65;

OLATHE - OJC   FAIR      56  52  86 S6        30.09S
6HR MIN TEMP:  56; 6HR MAX TEMP:  66;

LAWRENCE       FAIR      61  54  77 S9        30.08S

$$

MOZ001>008-011>017-020>025-030>033-038>040-044>046-053-054-200700-
...NORTHERN AND CENTRAL MISSOURI...

CITY           SKY/WX    TMP DP  RH WIND       PRES   REMARKS
ST. JOSEPH     FAIR      59  54  83 S6        30.06S
6HR MIN TEMP:  59; 6HR MAX TEMP:  67;

MOSBY            N/A     52  52 100 CALM      30.08S
WARRENSBURG    FAIR      55  50  82 S5        30.10S
WHITEMAN AFB   CLEAR     55  50  85 S7        30.07S
6HR MIN TEMP:  55; 6HR MAX TEMP:  68;

CLINTON        FAIR      54  52  94 S3        30.12S
SEDALIA        FAIR      57  52  83 S10       30.12S
6HR MIN TEMP:  55; 6HR MAX TEMP:  69;

WARSAW         NOT AVBL
CHILLICOTHE      N/A     53  51  93 CALM      30.09F
6HR MIN TEMP:  53; 6HR MAX TEMP:  69;

KIRKSVILLE     FAIR      55  51  86 S6        30.10S
6HR MIN TEMP:  55; 6HR MAX TEMP:  61;


$$

MOZ041-047>049-056>058-063>065-088>090-097-200700-
...EASTERN AND SOUTHERN MISSOURI...

CITY           SKY/WX    TMP DP  RH WIND       PRES   REMARKS
ST. LOUIS INTL FAIR      63  51  65 S3        30.16S
6HR MIN TEMP:  63; 6HR MAX TEMP:  72;

SPIRIT OF STL  FAIR      50  50 100 CALM      30.15R FOG
COLUMBIA       FAIR      58  50  75 S8        30.13S
JEFFERSON CITY FAIR      51  49  92 SE3       30.13S
ROLLA          FAIR      62  50  64 S14       30.16S
OSAGE BEACH    FAIR      58  49  72 S7        30.14F
SPRINGFIELD    FAIR      59  49  69 S9        30.14S
BRANSON        FAIR      57  50  77 S6        30.17S
JOPLIN         FAIR      56  52  86 S9        30.14R
WEST PLAINS    FAIR      56  49  77 S3        30.20F

$$

IAZ060-094-KSZ022-034>040-054-083-096-NEZ052-066-093-200700-
...KANSAS...SOUTHEAST NEBRASKA AND IOWA...

CITY           SKY/WX    TMP DP  RH WIND       PRES   REMARKS
TOPEKA         FAIR      62  54  74 S8        30.06S
6HR MIN TEMP:  60; 6HR MAX TEMP:  70;

MANHATTAN      FAIR      61  53  75 S9        30.03F
EMPORIA        FAIR      58  52  80 S15       30.07S
CHANUTE        FAIR      52  50  93 SE5       30.11S
WICHITA        FAIR      60  55  83 SE12      30.05F
OMAHA          FAIR      60  50  69 S12       29.98S
LINCOLN        FAIR      62  48  60 S14       29.98R
FALLS CITY     FAIR      60  52  74 S7        30.03S
LAMONI         FAIR      58  52  80 S9        30.06S
DES MOINES     FAIR      59  52  77 S9        30.02S

$$




USA.gov is the U.S. government's official web portal to all federal, state and local government web resources and services.